Location: Boda
(47.1872°N, 9.5454°E)
Time: 08:21:42
(UTC+00:00)

Cosmos 2151 Rocket - Pass Details

Date: 14 May 2021
Orbit: 617 x 643 km, 82.5° (Epoch: 16 June)

Event Time Altitude Azimuth Distance (km) Brightness Sun altitude
Rises 23:59:12 0° 348° (NNW) 2,959 8.2 -23.5°
Reaches altitude 10° 00:01:29 10° 346° (NNW) 2,042 7.1 -23.5°
Maximum altitude 00:05:58 68° 264° (W) 690 3.6 -23.3°
Enters shadow 00:06:05 67° 253° (WSW) 692 3.6 -23.3°
